Content
SEND FEEDBACK

Daily
Averages
Monthly
Summary
United States of America

BROOKSVILLE, FLORIDA


Home > North America > United States > Florida
Elevation: 28 feet     Latitude: 28 37N     Longitude: 082 22W

WEATHER
 
SELECT A DAY
Number of Records: 208,799;   Date Range: 7/1/96 - 9/29/14
 
SHARE

PRINT THIS DATA

[ ← Previous Day ]
WEATHER ALMANAC - JANUARY 31, 2013
[ Next Day → ]
[ °C ]   °F
Weather ElementAverageHighLow
Temperature54.2 °F60.1 °F (1:53 pm)37 °F (11:53 pm)
Dewpoint41.7 °F55.9 °F (3:53 am)26.1 °F (1:53 pm)
Humidity67.8 %100 % (3:32 am)27 % (1:53 pm)
Barometer30.13 in30.28 in (11:53 pm)30.00 in (12:33 am)
Wind Speed6.6 mph19.6 mph (12:33 am)
Wind Gust32.2 mph (12:33 am)
Weather ElementAverage
Visibility9.5 mi
Wind DirectionSW (222.1 °)

Weather ElementTotal
Precipitation0.13 in
Heating Degree Days16.5 (Base 65)
Averaged from 28 records on January 31, 2013
WEATHER CONDITIONS BREAKOUT
WIND DIRECTION BREAKOUT
WEATHER BY HOUR - JANUARY 31, 2013
[ °C ]   °F
Local TimeTemperatureDewpointHumidityBarometerVisibilityWind DirectionWind SpeedGust SpeedPrecipitationEventsConditions
12:33 AM57.2 °F55.4 °F94 %30.00 in8.0 miWNW (300°)19.6 mph32.2 mph0.02 inRainLight Rain
12:53 AM57.0 °F55.0 °F93 %30.01 in6.0 miNW (310°)11.5 mph20.7 mph0.03 inRainLight Rain
1:02 AM57.2 °F55.4 °F94 %30.00 in6.0 miNW (310°)6.9 mph0.01 inRainLight Rain
1:53 AM55.9 °F55.0 °F97 %30.00 in7.0 miCalm0.07 inRainLight Rain
2:53 AM57.0 °F55.0 °F93 %30.00 in10.0 miCalm0.00 inRainLight Rain
3:09 AM57.2 °F55.4 °F94 %30.01 in10.0 miCalm0.00 inOvercast
3:32 AM55.4 °F55.4 °F100 %30.02 in10.0 miCalm0.00 inMostly Cloudy
3:53 AM57.0 °F55.9 °F96 %30.02 in10.0 miCalm0.00 inOvercast
4:53 AM57.0 °F55.9 °F96 %30.03 in10.0 miCalmOvercast
5:53 AM57.9 °F53.1 °F84 %30.04 in10.0 miNW (320°)10.4 mphMostly Cloudy
6:53 AM55.9 °F46.9 °F72 %30.09 in10.0 miNW (320°)8.1 mphClear
7:53 AM54.0 °F44.1 °F69 %30.11 in10.0 miNNW (330°)8.1 mphClear
8:53 AM54.0 °F44.1 °F69 %30.15 in10.0 miNNW (340°)12.7 mph20.7 mphClear
9:53 AM55.0 °F34.0 °F45 %30.18 in10.0 miNorth (360°)12.7 mphClear
10:53 AM55.0 °F30.0 °F38 %30.20 in10.0 miNNW (340°)10.4 mph20.7 mphClear
11:53 AM57.9 °F30.9 °F36 %30.19 in10.0 miNorth (360°)12.7 mphClear
12:53 PM59.0 °F34.0 °F39 %30.18 in10.0 miWest (280°)5.8 mphClear
1:53 PM60.1 °F26.1 °F27 %30.17 in10.0 miNNW (340°)10.4 mphClear
2:53 PM60.1 °F26.1 °F27 %30.17 in10.0 miNNW (340°)10.4 mph24.2 mphClear
3:53 PM59.0 °F30.0 °F33 %30.18 in10.0 miNW (310°)11.5 mphClear
4:53 PM57.9 °F30.0 °F35 %30.18 in10.0 miNW (320°)10.4 mphClear
5:53 PM55.0 °F30.0 °F38 %30.19 in10.0 miNW (310°)9.2 mphClear
6:53 PM51.1 °F34.0 °F52 %30.20 in10.0 miNW (320°)3.5 mphClear
7:53 PM46.0 °F35.1 °F66 %30.23 in10.0 miCalmClear
8:53 PM42.1 °F35.1 °F76 %30.25 in10.0 miCalmClear
9:53 PM44.1 °F37.0 °F76 %30.26 in10.0 miNorth (350°)3.5 mphClear
10:53 PM45.0 °F36.0 °F71 %30.27 in10.0 miNorth (360°)5.8 mphClear
11:53 PM37.0 °F34.0 °F89 %30.28 in10.0 miCalmClear
Hourly data recorded from KBKV, located miles away from Brooksville, Florida







STORIES FROM OUR PARTNERS